[[{"header":{"parameterUnit":"m.s-1","parameterCategory":1,"la1":30.2991,"la2":30.254,"lo1":-89.0895,"lo2":-89.0444,"dx":0.0017,"dy":0.0017,"nx":28,"ny":28,"refTime":"2023-01-20T09:00:00:Z","depth":0,"parameterNumber":2,"parameterNumberName":"U-component_of_WINDS"},"data":[0,0,0,0,0,0,0,0,0,0,0,0,0,0,0,0,0,0,0,0,0,0,0,0,0,0,0,0,0,0,0,0,0,0,0,0,0,0,0,0,0,0,0,0,0,0,0,0,0,0,0,0,0,0,0,0,0,0,-7.8962,-7.8963,0,-7.9053,-7.9054,-7.9055,-7.8878,-7.8872,-7.8866,-7.886,-7.8954,-7.8962,-7.897,0,0,0,0,0,0,0,0,0,0,0,0,0,-7.8638,-7.8645,-7.8962,-7.8963,-7.8964,-7.9053,-7.9054,-7.9055,-7.8879,-7.8872,-7.8864,-7.8858,-7.8952,-7.8961,-7.8971,0,0,0,0,0,0,0,0,0,0,0,0,0,-7.8759,-7.8647,-7.8962,-7.8887,-7.8881,-7.9052,-7.9054,-7.9055,-7.888,-7.8871,-7.8863,-7.8854,-7.8949,-7.896,-7.8972,-7.922,0,0,-7.9008,-7.9013,0,0,0,0,0,0,0,0,-7.8752,-7.8771,-7.8897,-7.8892,-7.8886,-7.8945,-7.8974,-7.9111,-7.8882,-7.8881,-7.886,-7.885,-7.8958,-7.8969,-7.9005,-7.9225,-7.9229,-7.9009,-7.9017,-7.9022,-7.9025,0,0,0,0,0,0,0,-7.8744,-7.8766,-7.8998,-7.8899,-7.8893,-7.8849,-7.8857,-7.8999,-7.8968,-7.888,-7.8867,-7.8881,-7.8954,-7.8994,-7.9006,-7.923,-7.9009,-7.902,-7.9027,-7.9032,-7.9659,-7.9668,0,0,0,0,0,0,-7.8745,-7.876,-7.8995,-7.9,-7.8796,-7.8862,-7.8871,-7.8935,-7.8965,-7.8962,-7.8888,-7.8872,-7.8978,-7.8992,-7.9009,-7.9301,-7.9022,-7.9033,-7.904,-7.9649,-7.9661,-7.9671,0,0,0,0,0,0,-7.8739,-7.8767,-7.8991,-7.8877,-7.8902,-7.8877,-7.8951,-7.8941,-7.8981,-7.8971,-7.8965,-7.8935,-7.8972,-7.8992,-7.9169,-7.9302,-7.9038,-7.9049,-7.9638,-7.9653,-7.9666,-7.9889,0,0,0,0,0,0,-7.873,-7.8766,-7.886,-7.888,-7.8909,-7.9151,-7.8959,-7.8949,-7.9002,-7.8982,-7.9014,-7.901,-7.8966,-7.9152,-7.9181,-7.9314,-7.9058,-7.9626,-7.9645,-7.9661,-7.987,-7.9909,-7.9943,0,0,0,0,0,-7.8719,-7.8919,-7.8866,-7.8895,-7.9026,-7.9158,-7.9175,-7.912,-7.9014,-7.9108,-7.9102,-7.9009,-7.9283,-7.9172,-7.9203,-7.9341,-7.9617,-7.9639,-7.966,-7.9853,-7.9901,-7.9942,0,0,0,0,0,0,-7.8915,-7.8921,-7.8861,-7.9074,-7.9117,-7.9128,-7.9245,-7.9173,-7.9247,-7.9225,-7.9154,-7.9163,-7.9354,-7.9365,-7.9241,-7.9583,-7.9432,-7.9461,-7.9569,-7.9614,-7.965,-7.9643,-7.9068,0,0,0,0,0,-7.8983,-7.909,-7.9089,-7.9277,-7.9302,-7.9271,-7.9326,-7.9281,-7.9322,-7.934,-7.9346,-7.9391,-7.9486,-7.9551,-7.9639,-7.9871,-7.9875,-7.9981,-8.0018,-8.0048,-8.0073,-8.0197,-8.0244,-7.9741,-7.9741,-7.9741,0,0,-7.9125,-7.9141,-7.9213,-7.9317,-7.9345,-7.9458,-7.9287,-7.9413,-7.9496,-7.9359,-7.9526,-7.9533,-7.9578,-7.9784,-7.9875,-7.9799,-8.0213,-8.0075,-8.01,-8.0108,-8.0224,-8.0271,-8.0314,-7.9756,-7.9753,-7.9751,0,0,-7.944,-7.9463,-7.9622,-7.9654,-7.9699,-7.9677,-7.9715,-7.9738,-7.9737,-7.9904,-7.9804,-7.9902,-8.0069,-8.0105,-8.0145,-8.0477,-8.0394,-8.0507,-8.0698,-8.082,-8.0859,-8.0894,-8.1012,-8.1055,-8.0533,-8.0533,-8.0534,0,-7.961,-7.9775,-7.9713,-7.9847,-7.9896,-7.9777,-7.9938,-7.9972,-8.0044,-8.008,-7.9995,-8.0202,-8.0224,-8.0436,-8.0517,-8.0554,-8.0596,-8.0502,-8.0858,-8.0893,-8.0924,-8.1036,-8.108,-8.0547,-8.0545,-8.0544,-8.0542,0,-7.9982,-8.0099,-8.0222,-8.0294,-8.0357,-8.0504,-8.0464,-8.0536,-8.0486,-8.0473,-8.0645,-8.0668,-8.0758,-8.0805,-8.0757,-8.1012,-8.0963,-8.087,-8.0716,-8.0986,-8.109,-8.1132,-8.0566,-8.0561,-8.0557,-8.0554,0,0,-8.0421,-8.0458,-8.0504,-8.0536,-8.0577,-8.0666,-8.0808,-8.0896,-8.0959,-8.1013,-8.113,-8.1275,-8.1189,-8.1235,-8.119,-8.1297,-8.1558,-8.119,-8.1189,-8.1257,-8.184,-8.1909,-8.1959,-8.1504,-8.1512,-8.1518,-8.1835,0,-8.0733,-8.0976,-8.0926,-8.1165,-8.1272,-8.1161,-8.1285,-8.1325,-8.1317,-8.1407,-8.1399,-8.1503,-8.1381,-8.1408,-8.1509,-8.1505,-8.1674,-8.1481,-8.1612,-8.1618,-8.1603,-8.2013,-8.2087,-8.2385,-8.1875,-8.1882,-8.1887,0,-8.1128,-8.1197,-8.1448,-8.1472,-8.1515,-8.1628,-8.1704,-8.1792,-8.1835,-8.1822,-8.1875,-8.181,-8.1952,-8.1799,-8.1992,-8.1863,-8.1914,-8.192,-8.193,-8.1939,-8.1768,-8.2032,-8.2478,-8.2523,-8.195,-8.1945,-8.1941,0,-8.1422,-8.1578,-8.1748,-8.1778,-8.1812,-8.1893,-8.1911,-8.1945,-8.2002,-8.207,-8.2106,-8.219,-8.2236,-8.2303,-8.2263,-8.2155,-8.2464,-8.2307,-8.2457,-8.2459,-8.2526,-8.2522,-8.2985,-8.2562,-8.2561,-8.256,-8.2559,0,-8.1775,-8.1932,-8.188,-8.1985,-8.2158,-8.2099,-8.2272,-8.2277,-8.2309,-8.2412,-8.2323,-8.2422,-8.2363,-8.2459,-8.2428,-8.2594,-8.2615,-8.2609,-8.2599,-8.2616,-8.2617,-8.2647,-8.2625,-8.2572,-8.2569,-8.2567,-8.2565,0,-8.2131,-8.2103,-8.2281,-8.2299,-8.2307,-8.2434,-8.2449,-8.2547,-8.2533,-8.2666,-8.2694,-8.2673,-8.278,-8.2748,-8.2864,-8.2843,-8.3053,-8.3017,-8.3038,-8.3029,-8.318,-8.3166,-8.3678,-8.3742,-8.3279,-8.3283,-8.3287,0,-8.2357,-8.2475,-8.2507,-8.257,-8.2594,-8.2697,-8.2754,-8.2702,-8.2765,-8.2824,-8.2915,-8.3014,-8.3091,-8.3268,-8.3263,-8.3352,-8.3316,-8.349,-8.3329,-8.3343,-8.3318,-8.3311,-8.3322,-8.3522,-8.3527,-8.3531,-8.3535,0,-8.2761,-8.2741,-8.2827,-8.291,-8.2981,-8.3044,-8.3098,-8.3155,-8.3106,-8.3182,-8.3291,-8.335,-8.3469,-8.3569,-8.365,-8.3668,-8.3595,-8.3586,-8.3625,-8.3643,-8.365,-8.3647,-8.3124,-8.3574,-8.357,-8.3567,-8.3565,-8.3563,-8.3058,-8.3158,-8.3195,-8.3295,-8.333,-8.3384,-8.3476,-8.3475,-8.3565,-8.3657,-8.3621,-8.3746,-8.3787,-8.3887,-8.3917,-8.4015,-8.3948,-8.4005,-8.4019,-8.4034,-8.4052,-8.3637,-8.4029,-8.4028,-8.4027,-8.4026,-8.4025,0,-8.3455,-8.3475,-8.3567,-8.3646,-8.3724,-8.3649,-8.3705,-8.3776,-8.3887,-8.3931,-8.4009,-8.4135,-8.4232,-8.4236,-8.4327,-8.4404,-8.4372,-8.443,-8.4422,-8.4428,-8.4107,-8.4064,-8.4454,-8.4454,-8.4454,-8.4453,-8.4453,-8.4453,-8.3671,-8.3836,-8.3822,-8.4005,-8.4022,-8.4144,-8.4183,-8.4232,-8.4267,-8.4411,-8.4491,-8.4494,-8.4523,-8.4615,-8.4701,-8.47,-8.4737,-8.4807,-8.4793,-8.4493,-8.445,-8.441,-8.4368,-8.4816,-8.4817,-8.5105,-8.5108,-8.511]},{"header":{"parameterUnit":"m.s-1","parameterCategory":1,"la1":30.2991,"la2":30.254,"lo1":-89.0895,"lo2":-89.0444,"dx":0.0017,"dy":0.0017,"nx":28,"ny":28,"refTime":"2023-01-20T09:00:00:Z","depth":0,"parameterNumber":3,"parameterNumberName":"V-component_of_WINDS"},"data":[0,0,0,0,0,0,0,0,0,0,0,0,0,0,0,0,0,0,0,0,0,0,0,0,0,0,0,0,0,0,0,0,0,0,0,0,0,0,0,0,0,0,0,0,0,0,0,0,0,0,0,0,0,0,0,0,0,0,-1.547,-1.5469,0,-1.5418,-1.5417,-1.5417,-1.5362,-1.5362,-1.5361,-1.536,-1.5308,-1.5307,-1.5307,0,0,0,0,0,0,0,0,0,0,0,0,0,-1.552,-1.5519,-1.547,-1.5469,-1.5468,-1.5418,-1.5417,-1.5417,-1.5362,-1.5362,-1.5361,-1.536,-1.5308,-1.5307,-1.5307,0,0,0,0,0,0,0,0,0,0,0,0,0,-1.5486,-1.5519,-1.547,-1.5435,-1.5432,-1.5418,-1.5417,-1.5416,-1.5363,-1.5361,-1.536,-1.5359,-1.5308,-1.5307,-1.5306,-1.5323,0,0,-1.5303,-1.5303,0,0,0,0,0,0,0,0,-1.5488,-1.5484,-1.5441,-1.5438,-1.5433,-1.5395,-1.5416,-1.5385,-1.5363,-1.5389,-1.536,-1.5359,-1.5338,-1.5334,-1.5327,-1.5321,-1.5318,-1.5303,-1.5303,-1.5302,-1.5302,0,0,0,0,0,0,0,-1.549,-1.5486,-1.5449,-1.544,-1.5436,-1.5422,-1.5416,-1.541,-1.5371,-1.5386,-1.5382,-1.5377,-1.5336,-1.5328,-1.5326,-1.5318,-1.5303,-1.5302,-1.5302,-1.5301,-1.5319,-1.532,0,0,0,0,0,0,-1.5498,-1.5488,-1.5451,-1.5448,-1.5458,-1.5422,-1.5415,-1.5409,-1.537,-1.5363,-1.5378,-1.5375,-1.5331,-1.5327,-1.5324,-1.5338,-1.5302,-1.5301,-1.5301,-1.5318,-1.5319,-1.532,0,0,0,0,0,0,-1.5499,-1.5495,-1.5453,-1.5467,-1.546,-1.5422,-1.5416,-1.5408,-1.5401,-1.5364,-1.5357,-1.5378,-1.533,-1.5325,-1.5323,-1.5336,-1.5301,-1.53,-1.5316,-1.5318,-1.5319,-1.537,0,0,0,0,0,0,-1.5501,-1.5496,-1.5503,-1.5467,-1.546,-1.5454,-1.5416,-1.5408,-1.5399,-1.5394,-1.5362,-1.5355,-1.5328,-1.5325,-1.5322,-1.5334,-1.5299,-1.5315,-1.5317,-1.5319,-1.5367,-1.5373,-1.5378,0,0,0,0,0,-1.5503,-1.552,-1.5503,-1.5499,-1.5467,-1.5455,-1.545,-1.5419,-1.5401,-1.5406,-1.5382,-1.5356,-1.5335,-1.5325,-1.5321,-1.5333,-1.5314,-1.5316,-1.5319,-1.5364,-1.5372,-1.5378,0,0,0,0,0,0,-1.5558,-1.5515,-1.5496,-1.5502,-1.5482,-1.5445,-1.5452,-1.5428,-1.5413,-1.5409,-1.5371,-1.5364,-1.5366,-1.5349,-1.5339,-1.5346,-1.5321,-1.5323,-1.5357,-1.5363,-1.5369,-1.5373,-1.5298,0,0,0,0,0,-1.5571,-1.5565,-1.5527,-1.5535,-1.5526,-1.5491,-1.5484,-1.5461,-1.544,-1.5431,-1.5407,-1.5387,-1.5375,-1.5368,-1.5356,-1.5364,-1.5355,-1.537,-1.5376,-1.5381,-1.5383,-1.5383,-1.5389,-1.5328,-1.5328,-1.5328,0,0,-1.5598,-1.5573,-1.5571,-1.5546,-1.5528,-1.5521,-1.5484,-1.548,-1.5474,-1.543,-1.5426,-1.5408,-1.5382,-1.5385,-1.5385,-1.5371,-1.5398,-1.5384,-1.5388,-1.5387,-1.5387,-1.5392,-1.5398,-1.533,-1.5329,-1.5329,0,0,-1.5642,-1.5624,-1.5628,-1.561,-1.5583,-1.5559,-1.556,-1.5526,-1.5511,-1.5506,-1.5473,-1.5465,-1.5447,-1.5429,-1.5418,-1.5453,-1.5428,-1.545,-1.548,-1.5481,-1.5486,-1.549,-1.5501,-1.5505,-1.5452,-1.5452,-1.5452,0,-1.5679,-1.5668,-1.5633,-1.5629,-1.5618,-1.5577,-1.558,-1.5565,-1.5535,-1.5528,-1.5513,-1.5487,-1.5468,-1.5464,-1.5472,-1.5465,-1.5464,-1.5454,-1.5488,-1.5492,-1.5495,-1.5505,-1.5509,-1.5455,-1.5455,-1.5454,-1.5454,0,-1.5713,-1.5706,-1.5712,-1.5683,-1.5673,-1.5673,-1.5637,-1.563,-1.5608,-1.5585,-1.5579,-1.5553,-1.5534,-1.5531,-1.551,-1.5524,-1.5516,-1.5495,-1.5469,-1.5504,-1.5512,-1.5516,-1.5459,-1.5458,-1.5457,-1.5456,0,0,-1.5793,-1.5743,-1.5746,-1.5731,-1.5697,-1.569,-1.5687,-1.5667,-1.5661,-1.5642,-1.5637,-1.5621,-1.5601,-1.5588,-1.5564,-1.5565,-1.5591,-1.5543,-1.5542,-1.5552,-1.5603,-1.5618,-1.5623,-1.5574,-1.5575,-1.5576,-1.5604,0,-1.5831,-1.5823,-1.579,-1.5792,-1.5783,-1.5743,-1.574,-1.5718,-1.5696,-1.5685,-1.566,-1.5649,-1.5624,-1.5615,-1.5614,-1.5588,-1.5601,-1.5586,-1.5569,-1.5569,-1.5576,-1.5628,-1.5645,-1.5674,-1.5608,-1.5608,-1.5609,0,-1.5874,-1.5856,-1.5857,-1.582,-1.5815,-1.5814,-1.5791,-1.5781,-1.5755,-1.5738,-1.5723,-1.5695,-1.5688,-1.5664,-1.5653,-1.5643,-1.5634,-1.562,-1.562,-1.5617,-1.5591,-1.5625,-1.5682,-1.5686,-1.5614,-1.5614,-1.5613,0,-1.5931,-1.5906,-1.5903,-1.5891,-1.5849,-1.5849,-1.5831,-1.5803,-1.5792,-1.5773,-1.5765,-1.5745,-1.5734,-1.5719,-1.5685,-1.5671,-1.5677,-1.5651,-1.5663,-1.5663,-1.5666,-1.5666,-1.5721,-1.5661,-1.5661,-1.5661,-1.5661,0,-1.5976,-1.5978,-1.5927,-1.5925,-1.5925,-1.5886,-1.5887,-1.5865,-1.5841,-1.5833,-1.5797,-1.579,-1.5747,-1.5735,-1.5709,-1.5702,-1.5698,-1.5684,-1.5676,-1.5686,-1.5688,-1.568,-1.5677,-1.5662,-1.5662,-1.5662,-1.5662,0,-1.6039,-1.6005,-1.5999,-1.5958,-1.5948,-1.595,-1.5915,-1.591,-1.5885,-1.5875,-1.5871,-1.5831,-1.5815,-1.578,-1.5754,-1.5736,-1.5736,-1.5724,-1.5745,-1.574,-1.5753,-1.5752,-1.5805,-1.5809,-1.5748,-1.5748,-1.5749,0,-1.607,-1.607,-1.6029,-1.6021,-1.6005,-1.5992,-1.598,-1.5942,-1.5931,-1.5899,-1.5898,-1.5879,-1.5861,-1.5836,-1.5805,-1.5784,-1.5771,-1.579,-1.5767,-1.5776,-1.5769,-1.5769,-1.5768,-1.5796,-1.5796,-1.5797,-1.5798,0,-1.6128,-1.6111,-1.6095,-1.6073,-1.606,-1.6041,-1.602,-1.6015,-1.5971,-1.596,-1.5942,-1.5929,-1.5901,-1.5882,-1.5856,-1.5837,-1.5809,-1.5805,-1.5806,-1.5816,-1.5828,-1.582,-1.5758,-1.5804,-1.5803,-1.5803,-1.5803,-1.5802,-1.6175,-1.6172,-1.6143,-1.6126,-1.6105,-1.6086,-1.6079,-1.6052,-1.6037,-1.6011,-1.5989,-1.5972,-1.5943,-1.5906,-1.5888,-1.5874,-1.5861,-1.5863,-1.5863,-1.5864,-1.5868,-1.583,-1.5869,-1.5869,-1.5869,-1.5868,-1.5868,0,-1.623,-1.6209,-1.6193,-1.6164,-1.615,-1.6125,-1.61,-1.609,-1.6076,-1.6051,-1.6033,-1.6012,-1.5992,-1.5958,-1.5934,-1.593,-1.5916,-1.5925,-1.5924,-1.592,-1.5882,-1.5882,-1.5936,-1.5936,-1.5936,-1.5936,-1.5936,-1.5936,-1.6257,-1.6251,-1.6229,-1.6211,-1.6189,-1.6173,-1.616,-1.6141,-1.612,-1.6098,-1.6081,-1.6058,-1.6029,-1.6003,-1.5983,-1.5973,-1.5966,-1.5978,-1.5964,-1.5929,-1.5923,-1.5917,-1.5917,-1.5977,-1.5977,-1.6003,-1.6003,-1.6004]}]]